Wind_Speed
21 24 16 28 25 24 15 14 16 15 15 14 11 12 14 14 14 12 9 8 12 13 12 13 14 13 12 12 11 12 10 11 12 13 12 11 11 11 13 13 16 17 13 15 14 15 18 16 15
26 26 25 25 27 10 16 12 14 13 12 13 12 11 10 12 13 10 10 9 10 12 13 12 13 12 12 12 10 10 10 10 10 10 11 10 10 11 11 11 15 17 16 16 15 15 15 16 16
25 26 20 24 27 9 10 14 13 10 9 10 11 10 10 10 9 9 10 10 9 12 13 12 12 11 11 12 10 9 9 8 8 8 9 10 11 11 10 10 12 15 15 17 16 15 13 14 14
22 23 24 24 21 9 13 13 11 8 7 8 7 9 9 9 9 8 8 8 10 11 12 12 11 12 12 10 9 8 7 7 7 7 9 9 10 10 9 9 9 11 12 13 13 13 13 12 13
23 22 24 15 11 12 15 14 9 8 9 7 7 7 7 7 7 7 7 7 8 9 10 10 11 11 11 9 8 7 7 7 8 7 8 8 8 8 8 8 9 10 10 13 12 13 12 12 12
32 23 20 9 12 14 14 13 12 11 9 8 7 8 7 7 6 6 6 7 7 7 9 9 9 9 9 7 6 7 7 7 8 7 6 6 6 7 6 8 7 8 8 9 12 12 10 9 10
12 12 20 12 12 13 16 10 11 10 11 10 8 10 9 8 6 5 4 6 6 6 6 6 7 7 7 6 6 6 7 7 5 4 5 4 4 5 5 4 5 5 5 5 8 8 8 6 6
27 27 12 5 4 11 10 11 8 11 9 9 8 8 7 6 5 5 4 4 5 6 6 4 4 6 6 5 4 4 3 2 3 3 3 3 3 2 2 1 2 2 1 3 7 3 8 6 1
16 23 17 4 5 8 8 9 7 7 5 5 6 6 6 4 3 3 3 4 5 5 5 5 5 6 6 5 4 3 2 1 1 1 2 3 3 3 2 2 1 1 2 3 4 2 6 10 1
12 17 9 7 6 7 10 2 5 3 1 0 1 2 3 4 2 3 4 3 4 4 4 4 3 2 4 7 7 5 3 0 1 2 3 2 3 3 3 4 3 2 3 3 4 2 8 13 6
10 7 8 11 8 4 3 5 8 4 1 5 4 4 2 1 1 1 2 1 1 3 4 4 5 4 2 2 4 4 4 4 3 3 3 3 3 4 5 6 6 4 3 6 8 6 4 10 9
4 8 7 7 8 6 5 1 4 3 3 4 6 6 5 4 2 1 1 2 1 2 2 3 4 5 4 1 2 4 5 6 7 7 6 6 6 7 7 6 6 6 7 7 10 9 7 8 4
5 5 2 4 3 5 6 6 5 6 4 4 5 7 6 4 3 1 1 1 1 1 1 2 2 2 2 1 2 4 6 7 8 10 11 10 10 10 11 11 10 8 7 7 11 11 11 9 4
7 2 2 6 7 4 6 2 4 7 6 6 7 5 4 3 3 2 1 1 1 2 3 3 3 4 4 4 4 5 7 9 9 10 12 13 13 14 14 15 14 13 12 12 11 16 4 12 13
7 1 2 8 8 4 10 3 5 6 9 8 6 5 2 1 1 1 1 2 3 3 5 6 6 5 5 5 5 6 8 10 12 13 13 14 15 17 17 17 18 19 18 16 15 17 16 16 18
3 6 8 7 10 13 10 7 6 6 9 8 6 4 4 4 2 1 0 1 2 4 5 5 4 3 2 3 4 5 7 8 9 11 13 14 14 15 16 18 19 19 21 21 20 21 21 18 21
15 5 15 14 14 12 17 20 8 15 7 7 5 3 2 3 3 3 3 3 2 3 2 3 3 1 2 4 5 6 8 8 6 6 9 12 13 15 17 18 19 20 20 21 22 22 22 21 23
18 19 18 18 15 18 18 20 16 12 9 6 4 3 3 4 6 4 3 4 5 5 5 6 6 4 4 4 5 6 6 7 8 8 10 11 14 17 18 21 22 22 22 22 22 23 23 23 23
12 6 3 11 12 14 11 15 15 15 11 12 11 13 12 10 8 7 4 4 4 6 7 8 9 4 4 3 3 6 8 8 9 10 11 12 13 15 18 20 21 21 22 24 25 25 25 27 26
12 11 5 3 12 15 2 10 5 13 12 11 8 6 8 9 9 8 6 5 3 3 4 5 6 6 8 9 10 11 13 14 15 15 14 16 16 17 17 22 23 23 24 26 22 25 26 28 29
3 11 2 5 7 9 4 6 15 8 12 13 11 9 8 7 6 6 6 6 6 6 7 8 10 11 11 12 13 15 16 18 18 18 18 18 21 22 21 19 22 25 25 26 25 27 28 27 28
8 10 7 7 12 10 3 3 10 6 13 12 4 11 10 12 10 9 8 7 8 10 11 11 13 14 16 16 16 17 19 21 21 21 22 24 23 23 25 26 26 26 28 28 31 31 26 29 29
8 9 5 8 21 4 16 16 17 20 18 17 15 18 22 28 20 15 12 12 14 15 16 18 19 20 21 22 23 23 24 23 24 25 23 24 26 27 28 28 29 29 31 33 33 35 33 29 26
13 13 3 7 14 13 15 16 11 21 14 7 10 14 23 30 27 30 21 18 18 18 18 20 22 22 23 24 24 26 27 27 28 30 31 31 31 28 28 33 32 32 31 34 36 35 34 34 29
4 5 10 8 8 9 19 5 19 17 18 9 7 12 21 19 25 29 37 32 13 13 19 22 23 24 25 26 26 27 29 30 30 30 31 34 36 37 37 34 32 35 39 36 34 35 35 35 33
2 5 8 14 12 19 8 6 13 18 13 11 1 13 17 18 17 23 35 35 34 28 18 29 26 28 29 30 28 27 28 29 30 32 34 36 39 41 42 41 40 39 40 40 39 38 37 37 35
2 6 6 3 8 6 8 8 10 10 8 12 7 8 14 12 10 18 29 31 31 37 32 27 33 30 30 29 30 30 31 32 34 35 35 35 38 40 40 43 44 41 41 41 41 41 40 38 36
5 6 7 2 11 2 14 14 7 11 7 16 29 18 18 23 22 23 29 32 23 41 37 28 33 37 35 36 37 37 36 37 37 38 38 39 41 43 45 45 45 45 46 44 44 42 41 40 37
12 3 4 6 4 7 8 17 16 7 18 29 30 21 23 23 23 19 18 27 33 40 38 36 33 41 41 40 40 40 41 42 43 45 45 45 46 48 49 50 49 47 47 49 47 44 41 41 38
16 7 3 6 5 7 9 8 8 16 16 14 23 21 23 21 23 25 25 26 35 41 41 40 39 42 41 40 41 43 45 47 49 51 52 52 53 53 54 52 50 51 50 49 48 45 44 42 39
Wind_Direction
84 78 81 71 69 52 49 92 88 93 98 104 100 101 106 112 111 106 106 109 112 115 127 124 120 117 124 126 123 115 120 117 110 100 92 85 79 79 79 70 76 87 96 87 87 91 92 95 97
90 90 82 88 70 62 77 99 84 94 106 110 106 101 101 99 104 110 107 101 106 118 125 119 114 117 126 132 128 125 125 122 117 104 92 89 87 83 84 75 79 86 87 90 91 86 86 90 95
90 83 88 93 79 46 107 93 87 94 109 118 115 108 100 95 95 100 96 103 116 127 131 119 111 122 129 132 135 129 131 123 116 119 108 103 96 90 92 87 81 86 90 85 84 86 87 88 90
84 83 81 78 120 137 107 102 91 93 97 110 106 93 95 101 103 106 97 100 104 119 127 128 120 114 124 134 132 130 128 126 118 115 116 108 103 95 94 92 82 74 81 81 75 68 70 78 83
86 75 67 58 104 116 113 97 84 78 93 105 96 97 105 109 117 106 102 91 89 107 119 121 122 127 131 132 132 137 125 119 103 103 112 109 108 101 98 92 80 76 66 63 62 62 71 77 73
81 65 65 69 82 85 92 96 95 95 89 85 88 95 107 119 107 93 93 83 86 97 112 121 127 134 132 132 143 145 124 114 102 100 101 93 95 96 93 91 86 80 71 64 52 53 66 84 86
9 89 82 28 91 91 93 93 90 90 94 87 84 90 95 126 130 103 105 97 102 87 81 111 138 145 148 149 153 150 136 122 114 102 98 91 96 100 95 96 100 91 79 53 30 26 48 73 82
110 90 116 107 58 84 81 79 83 92 89 84 78 78 83 101 119 125 119 83 86 76 60 76 149 162 161 170 177 160 136 133 105 92 92 70 61 72 67 67 104 118 112 63 5 356 26 2 231
104 119 120 22 136 114 112 97 77 75 80 95 83 73 81 88 118 141 138 123 108 96 91 110 137 163 166 176 188 187 180 121 54 40 19 35 21 360 6 341 343 63 31 46 44 39 24 29 203
80 104 92 139 108 86 104 113 98 92 54 359 70 104 80 79 92 152 161 162 138 103 75 77 77 150 174 187 192 199 194 180 33 30 18 10 348 16 346 299 314 314 335 350 290 345 32 26 61
39 86 100 70 85 360 62 59 85 305 331 353 316 328 324 308 9 47 111 124 121 91 83 71 51 50 87 228 224 232 240 241 251 285 324 346 349 329 326 343 310 322 319 307 301 313 42 36 62
56 80 64 64 78 4 91 139 284 4 26 5 330 336 348 340 285 324 47 53 72 98 87 61 69 60 65 158 242 250 262 279 283 283 290 308 314 311 317 323 342 331 313 307 303 313 344 80 306
85 76 355 53 10 8 33 32 344 360 354 321 317 325 335 340 345 29 62 41 42 20 343 347 360 21 22 9 281 272 277 276 280 288 294 298 302 306 311 315 316 312 310 298 291 293 317 310 269
127 116 121 20 10 344 360 70 46 31 29 356 350 328 318 342 342 297 275 264 278 313 308 306 319 326 333 332 324 310 301 297 293 288 288 290 292 296 300 302 302 303 303 298 294 283 215 295 281
72 200 263 77 6 324 22 26 9 32 27 19 7 7 360 311 336 351 288 261 264 283 295 295 300 304 311 319 319 312 304 301 301 299 294 293 295 299 301 302 304 304 300 294 288 283 292 280 275
360 40 337 43 23 19 55 223 28 79 47 40 28 24 44 62 67 51 258 288 302 298 291 291 300 317 6 26 16 2 341 318 309 309 307 303 303 302 304 306 306 305 303 301 295 292 291 286 286
80 76 1 37 17 14 18 4 32 46 45 7 9 11 43 71 56 56 75 79 28 329 325 325 302 259 25 30 19 24 26 27 12 348 335 326 323 317 314 313 312 310 304 300 298 295 290 286 280
58 33 24 359 21 44 5 352 29 24 1 6 357 353 337 343 354 3 11 349 2 19 38 26 28 86 101 49 33 23 13 7 360 352 343 333 325 324 317 316 315 314 314 310 300 296 294 288 284
14 33 29 358 58 78 30 29 53 32 31 44 48 48 40 47 44 30 19 9 53 61 65 49 52 78 39 30 353 332 330 324 327 324 326 326 323 323 324 323 318 314 314 309 309 302 299 294 279
172 149 323 10 80 57 186 84 351 20 23 16 17 39 56 48 39 35 36 31 76 40 23 18 12 360 346 344 340 336 328 325 322 324 318 311 316 314 308 316 321 321 318 306 302 302 296 295 290
136 106 25 345 31 72 20 344 345 20 26 4 355 9 19 25 17 15 4 358 340 336 332 334 338 338 332 331 331 329 328 323 322 321 316 315 316 314 313 313 312 311 315 312 308 297 297 288 287
83 104 42 348 304 68 149 287 305 360 341 11 13 19 360 356 347 335 327 317 321 324 319 320 324 322 328 330 330 334 330 326 323 319 316 315 314 310 308 309 311 309 307 312 309 306 295 293 286
24 89 87 290 281 146 212 229 327 347 328 346 343 358 348 341 338 339 324 315 317 321 322 325 326 326 329 331 329 328 324 320 316 314 313 309 308 308 306 303 302 307 308 307 306 307 307 294 288
111 53 360 298 347 53 14 4 322 336 317 177 272 325 336 332 333 333 326 331 327 325 322 321 318 319 319 319 316 315 315 315 313 312 311 309 307 304 301 302 301 298 296 304 303 308 306 300 293
341 320 20 11 320 39 356 15 296 319 344 350 21 5 319 327 326 330 325 323 308 300 310 309 310 309 309 311 316 317 316 316 316 314 309 308 306 305 304 300 294 293 295 300 300 299 301 299 289
12 24 299 1 3 335 17 265 323 332 345 359 251 244 235 284 318 310 307 307 303 317 321 315 315 309 313 316 316 315 314 310 307 306 306 305 303 302 301 298 297 296 295 296 296 294 299 295 287
313 10 230 3 311 258 288 297 293 37 34 277 326 336 329 304 307 280 289 276 287 303 316 321 314 313 314 312 309 307 306 303 301 301 301 301 300 299 300 300 299 297 294 292 291 290 291 291 289
224 34 11 350 317 53 326 308 304 290 220 269 318 300 287 284 262 260 266 294 314 300 314 321 311 309 308 309 308 307 307 307 306 304 303 303 302 301 299 297 296 296 294 292 288 288 287 287 284
321 292 245 257 256 307 289 296 301 260 288 312 311 295 297 297 304 306 291 289 285 297 304 307 303 301 304 305 304 303 303 303 304 303 303 302 301 300 300 298 295 293 289 287 287 286 282 282 280
307 291 295 271 297 258 295 322 295 295 320 300 296 302 298 305 299 299 298 289 284 289 295 297 296 295 297 297 297 298 300 302 303 303 303 304 305 304 302 299 296 293 290 286 284 282 280 278 276
Height
5894 5894 5892 5891 5892 5893 5899 5899 5899 5900 5901 5902 5903 5904 5905 5906 5905 5908 5906 5905 5907 5906 5908 5909 5908 5908 5909 5910 5910 5910 5911 5910 5909 5908 5907 5908 5908 5908 5908 5909 5909 5908 5909 5909 5908 5908 5908 5908 5908
5898 5898 5899 5898 5900 5904 5902 5902 5902 5903 5904 5905 5906 5906 5906 5906 5906 5908 5909 5909 5909 5909 5910 5910 5909 5911 5911 5911 5912 5913 5912 5912 5910 5910 5911 5911 5911 5911 5911 5911 5911 5910 5911 5911 5911 5910 5909 5910 5909
5902 5902 5905 5901 5900 5906 5904 5905 5905 5906 5907 5908 5908 5910 5910 5909 5909 5909 5909 5911 5912 5911 5911 5912 5912 5913 5913 5913 5915 5914 5914 5913 5912 5913 5913 5914 5914 5913 5914 5914 5913 5913 5914 5914 5914 5913 5912 5912 5911
5904 5905 5905 5907 5908 5907 5906 5907 5908 5909 5910 5910 5911 5912 5912 5912 5912 5913 5913 5913 5913 5913 5913 5914 5915 5914 5915 5916 5917 5916 5916 5916 5915 5915 5916 5916 5915 5915 5916 5916 5915 5915 5916 5917 5917 5917 5916 5915 5914
5906 5904 5905 5912 5910 5908 5908 5909 5911 5911 5912 5912 5913 5913 5914 5914 5914 5914 5914 5914 5915 5915 5914 5915 5917 5916 5917 5918 5918 5918 5918 5918 5918 5918 5918 5918 5918 5917 5918 5917 5917 5917 5918 5918 5918 5918 5916 5916 5915
5909 5908 5910 5917 5914 5913 5912 5912 5913 5913 5914 5914 5914 5915 5915 5916 5916 5915 5915 5916 5917 5917 5917 5918 5918 5918 5918 5919 5920 5920 5920 5921 5921 5921 5920 5920 5919 5920 5919 5919 5919 5919 5919 5919 5918 5918 5917 5916 5915
5900 5909 5916 5921 5917 5916 5916 5916 5916 5916 5917 5917 5917 5916 5917 5917 5917 5918 5918 5918 5918 5919 5918 5918 5919 5919 5919 5920 5922 5922 5923 5923 5923 5923 5923 5923 5922 5921 5921 5921 5922 5922 5922 5922 5921 5919 5919 5919 5918
5912 5914 5920 5923 5920 5920 5919 5919 5919 5919 5919 5919 5919 5919 5919 5919 5919 5919 5919 5919 5920 5921 5921 5921 5921 5921 5921 5923 5924 5924 5924 5925 5925 5925 5925 5924 5924 5924 5924 5924 5924 5925 5925 5923 5921 5921 5921 5921 5921
5919 5919 5921 5924 5921 5922 5922 5922 5923 5922 5922 5921 5921 5921 5921 5921 5921 5921 5921 5921 5921 5922 5922 5922 5922 5922 5922 5924 5925 5925 5925 5925 5926 5926 5926 5926 5926 5925 5925 5925 5926 5926 5927 5926 5922 5920 5919 5919 5919
5923 5923 5922 5924 5923 5924 5926 5923 5924 5925 5923 5923 5923 5923 5923 5923 5923 5923 5923 5923 5923 5923 5924 5924 5923 5923 5924 5924 5925 5925 5926 5926 5927 5927 5928 5928 5928 5927 5927 5927 5927 5928 5928 5926 5921 5923 5923 5922 5918
5924 5924 5925 5928 5927 5927 5927 5926 5926 5925 5925 5924 5925 5925 5925 5925 5925 5925 5925 5925 5925 5925 5925 5925 5925 5925 5926 5926 5927 5928 5928 5928 5928 5928 5928 5928 5929 5929 5928 5928 5927 5928 5928 5926 5923 5924 5924 5923 5924
5928 5926 5930 5929 5930 5930 5928 5928 5928 5927 5927 5928 5927 5927 5926 5926 5926 5926 5926 5926 5926 5926 5927 5927 5927 5927 5927 5928 5928 5929 5930 5930 5929 5929 5929 5929 5929 5928 5928 5928 5928 5929 5929 5927 5925 5925 5923 5923 5925
5929 5932 5931 5930 5931 5931 5930 5929 5930 5928 5927 5927 5927 5927 5927 5927 5926 5926 5927 5928 5928 5928 5929 5929 5928 5928 5929 5929 5929 5929 5930 5930 5930 5930 5930 5930 5929 5928 5928 5928 5929 5928 5929 5929 5924 5925 5927 5928 5918
5929 5931 5933 5934 5931 5930 5929 5929 5929 5929 5926 5926 5927 5928 5928 5927 5927 5927 5927 5928 5928 5929 5929 5929 5929 5929 5929 5930 5930 5930 5930 5930 5930 5931 5930 5929 5928 5928 5927 5927 5927 5928 5928 5929 5927 5920 5914 5924 5922
5932 5931 5930 5929 5932 5930 5932 5933 5931 5930 5928 5927 5927 5928 5928 5928 5928 5928 5928 5929 5929 5929 5929 5930 5930 5930 5930 5930 5930 5930 5930 5930 5930 5930 5930 5929 5928 5927 5926 5927 5926 5927 5927 5927 5927 5925 5924 5927 5921
5932 5933 5931 5933 5933 5931 5935 5937 5930 5929 5929 5929 5929 5929 5928 5928 5928 5928 5929 5929 5929 5929 5929 5930 5930 5930 5930 5930 5930 5930 5930 5930 5929 5929 5928 5928 5927 5926 5925 5924 5924 5924 5923 5923 5924 5923 5922 5922 5919
5933 5932 5934 5927 5930 5931 5931 5929 5932 5925 5930 5930 5930 5930 5930 5929 5929 5929 5930 5930 5930 5930 5930 5930 5930 5930 5931 5931 5931 5930 5930 5929 5929 5928 5928 5927 5926 5925 5924 5923 5922 5922 5922 5921 5920 5920 5920 5921 5918
5938 5938 5938 5937 5937 5935 5934 5932 5928 5930 5932 5931 5931 5931 5931 5931 5931 5931 5931 5931 5932 5932 5931 5931 5930 5930 5931 5931 5931 5930 5930 5929 5929 5928 5927 5927 5925 5923 5922 5921 5920 5919 5919 5918 5917 5916 5915 5915 5915
5943 5946 5946 5944 5941 5939 5940 5935 5936 5935 5934 5934 5933 5933 5933 5933 5933 5933 5933 5933 5933 5933 5933 5932 5932 5932 5932 5932 5931 5930 5929 5928 5927 5927 5926 5925 5923 5922 5919 5918 5917 5916 5915 5914 5913 5913 5912 5910 5909
5937 5939 5945 5944 5941 5942 5942 5940 5940 5936 5936 5936 5936 5935 5934 5934 5934 5935 5935 5934 5934 5934 5934 5934 5933 5933 5932 5931 5930 5929 5928 5927 5926 5925 5924 5922 5921 5919 5919 5916 5914 5912 5910 5909 5907 5906 5906 5905 5903
5943 5940 5945 5945 5945 5944 5941 5939 5939 5938 5937 5937 5937 5936 5936 5935 5935 5935 5935 5935 5934 5934 5934 5933 5932 5932 5931 5930 5929 5928 5926 5924 5923 5922 5921 5920 5918 5916 5914 5914 5911 5908 5906 5904 5901 5899 5898 5897 5896
5944 5943 5947 5949 5944 5945 5946 5942 5938 5936 5936 5939 5936 5938 5938 5937 5936 5934 5934 5934 5933 5933 5932 5932 5931 5930 5928 5927 5926 5925 5923 5922 5920 5919 5917 5914 5913 5913 5910 5907 5905 5903 5900 5898 5895 5893 5892 5890 5889
5945 5942 5948 5946 5943 5939 5938 5941 5941 5943 5939 5935 5933 5934 5933 5934 5933 5932 5931 5931 5929 5929 5928 5928 5927 5926 5925 5924 5922 5921 5920 5919 5917 5915 5914 5912 5909 5906 5904 5902 5899 5897 5893 5890 5888 5885 5882 5882 5882
5945 5946 5947 5945 5944 5942 5944 5939 5939 5943 5940 5938 5936 5936 5934 5931 5930 5929 5928 5927 5926 5925 5925 5925 5925 5923 5922 5921 5920 5917 5915 5914 5912 5909 5906 5904 5902 5901 5898 5893 5891 5889 5887 5885 5881 5877 5876 5874 5873
5945 5946 5950 5949 5945 5945 5946 5942 5941 5944 5942 5941 5940 5939 5933 5933 5932 5927 5924 5920 5922 5924 5923 5921 5921 5919 5918 5917 5915 5912 5909 5906 5904 5902 5900 5897 5893 5890 5888 5887 5885 5881 5877 5876 5874 5871 5869 5866 5865
5944 5948 5949 5947 5951 5951 5946 5944 5942 5939 5938 5936 5941 5943 5942 5938 5936 5930 5925 5919 5915 5915 5919 5916 5917 5914 5912 5910 5908 5907 5904 5902 5900 5897 5893 5890 5887 5883 5880 5877 5875 5873 5869 5865 5863 5862 5860 5858 5856
5947 5948 5947 5949 5953 5951 5946 5939 5938 5937 5938 5938 5938 5939 5938 5937 5936 5935 5930 5910 5907 5910 5913 5913 5911 5909 5906 5905 5903 5901 5899 5896 5893 5889 5885 5882 5879 5876 5873 5867 5864 5863 5860 5856 5853 5851 5850 5847 5846
5945 5946 5949 5950 5950 5950 5944 5945 5941 5940 5939 5936 5936 5935 5934 5933 5931 5929 5921 5912 5893 5907 5908 5909 5906 5901 5900 5898 5895 5892 5890 5887 5883 5879 5877 5873 5870 5866 5862 5859 5856 5852 5848 5845 5843 5842 5840 5837 5836
5945 5944 5946 5948 5948 5950 5949 5942 5940 5938 5936 5934 5932 5930 5928 5926 5924 5924 5924 5920 5915 5908 5904 5902 5901 5894 5891 5889 5886 5883 5880 5877 5874 5869 5866 5863 5860 5855 5851 5847 5844 5840 5837 5833 5830 5829 5828 5826 5825
5941 5940 5943 5945 5946 5946 5946 5948 5939 5936 5933 5931 5927 5926 5923 5923 5920 5918 5916 5915 5908 5902 5898 5895 5892 5887 5883 5880 5877 5873 5870 5866 5862 5857 5853 5849 5845 5842 5836 5834 5829 5825 5823 5820 5817 5816 5815 5814 5813